Location: Kerguer�zec
(48.4509°N, 4.7600°W)
Time: 23:51:33
(UTC+00:00)

Cosmos 2151 - Pass Details

Date: 09 April 2020
Orbit: 582 x 600 km, 82.5° (Epoch: 03 June)

Event Time Altitude Azimuth Distance (km) Brightness Sun altitude
Rises 21:01:03 0° 356° (N) 2,819 7.0 -18.6°
Reaches altitude 10° 21:03:23 10° 5° (N) 1,914 6.0 -18.9°
Maximum altitude 21:07:20 38° 74° (ENE) 901 3.6 -19.5°
Enters shadow 21:07:32 38° 81° (E) 904 3.5 -19.5°
